www.pogodaiklimat.ru

Погода и климат >> Архив погоды >> Доминиканская Республика >> Puerto Plata


ПОГОДА в Puerto Plata

  • Прогноз погоды в Puerto Plata
  • Монитор погоды в Puerto Plata
  • Климат города

АРХИВ ПОГОДЫ в Puerto Plata

Время (UTC), дата Ветер
(напр.,м/с)
 
Видим.   Явления Облачность Т
(С)
Тd
(С)
f
(%)
Тe
(С)
Тes
(С)
Комфортность P
(гПа)
Po
(гПа)
Тmin
(С)
Tmax
(С)
R
(мм)
R24
(мм)
S
(см)
03 14.05 ЮВ 4 16 км 9/5 480 м
[Cu Sc Ac As]
+23.5 +22.5 94 +31 +31 очень
душно
1016.9 1017.0
06 14.05 штиль 0 16 км 9/6 450 м
[Cu Sc As op]
+22.8 +22.4 98 +31 +31 очень
душно
1015.8 1016.0 +22.5 +32.4
09 14.05 штиль 0 16 км 8/8 450 м
[Sc]
+21.9 +21.5 98 +28 +28 душно 1014.8 1015.0
12 14.05 ЮВ 4 16 км 5/1 540 м
[Cu med, cong Ac As]
+26.2 +22.9 82 +35 +36 очень
душно
1016.0 1016.0 +21.5 +32.4
15 14.05 ЮВ 5 16 км 8/4 750 м
[Cu med, cong Ci]
+30.9 +23.8 66 +42 +47 опасность
перегрева
1016.4 1016.0
18 14.05 В 6 16 км 6/5 750 м
[Cu med, cong Ci fib]
+30.8 +25.1 72 +45 +48 опасность
перегрева
1015.2 1015.0 +21.5 +33.2
21 14.05 В 7 16 км 5/1 660 м
[Cu med, cong Ci fib]
+29.2 +23.4 71 +40 +41 очень
душно
1013.8 1014.0
00 15.05 В 5 16 км 8/1 540 м
[Cu med, cong Cs]
+26.4 +23.7 85 +36 +36 очень
душно
1015.5 1016.0 +21.5 +33.2
03 15.05 штиль 0 16 км 6/6 540 м
[Cu med, cong]
+25.0 +23.6 92 +34 +34 очень
душно
1016.6 1017.0
06 15.05 штиль 0 16 км 8/6 480 м
[Cu med, cong Cs]
+23.8 +23.2 96 +32 +32 очень
душно
1016.6 1017.0 +21.5 +33.2
09 15.05 штиль 0 16 км 6/6 480 м
[Cu med, cong]
+23.4 +22.8 96 +33 +33 очень
душно
1016.0 1016.0
12 15.05 штиль 0 16 км 9/1 540 м
[Cu med, cong Cs]
+25.4 +22.1 82 +33 +37 очень
душно
1016.9 1017.0 +22.7 +33.2
15 15.05 В 6 16 км 8/1 660 м
[Cu med, cong Cs]
+29.6 +21.7 63 +38 +44 очень
душно
1017.2 1017.0
18 15.05 В 8 16 км 9/4 750 м
[Cu med, cong Cs]
+31.0 +22.9 62 +41 +43 опасность
перегрева
1016.1 1016.0 +22.7 +32.7
21 15.05 В 6 16 км 8/5 660 м
[Cu Sc Ac trans Ci]
+29.4 +23.0 68 +39 +40 очень
душно
1015.4 1015.0
00 16.05 ЮВ 3 14 км в посл. час дождь 9/6 540 м
[Cu Sc Ci]
+23.8 +21.2 85 +30 +30 очень
душно
1016.6 1017.0 +22.7 +32.7 0.0
03 16.05 штиль 0 16 км 8/3 540 м
[Cu med, cong Ac trans Ci]
+24.0 +21.2 84 +30 +30 очень
душно
1017.6 1018.0
06 16.05 ЮВ 4 16 км 6/3 540 м
[Cu med, cong Ac trans Ci fib]
+23.4 +21.1 87 +31 +31 очень
душно
1016.8 1017.0 +22.7 +32.7
09 16.05 В 4 16 км 5/1 500 м
[Cu med, cong Ac trans Ci fib]
+22.9 +21.0 89 +30 +30 очень
душно
1015.8 1016.0
12 16.05 штиль 0 16 км 6/3 600 м
[Cu med, cong Ac trans Ci fib]
+25.3 +21.8 81 +33 +35 очень
душно
1015.9 1016.0 +22.7 +32.7
15 16.05 ЮВ 5 16 км 6/3 660 м
[Cu med, cong Ac trans Ci]
+28.6 +21.2 64 +36 +41 очень
душно
1017.2 1017.0
18 16.05 В 6 16 км {дождь} 8/4 660 м
[Cu med, cong Ac trans Ci]
+30.4 +22.0 61 +39 +42 очень
душно
1015.9 1016.0 +22.7 +31.5 0.0
21 16.05 В 7 16 км 8/3 600 м
[Cu med, cong Ci]
+28.9 +22.2 67 +38 +38 очень
душно
1014.6 1015.0
00 17.05 В 5 16 км 8/3 540 м
[Cu med, cong Ci]
+26.0 +22.3 80 +34 +34 очень
душно
1015.6 1016.0 +22.7 +31.5
03 17.05 В 5 16 км 5/3 540 м
[Cu med, cong Ci]
+25.0 +22.2 84 +32 +32 очень
душно
1016.8 1017.0
06 17.05 штиль 0 16 км 3/3 540 м
[Cu med, cong Ci]
+23.6 +21.6 89 +30 +30 очень
душно
1015.1 1015.0 +22.7 +31.5
09 17.05 штиль 0 16 км 3/3 540 м
[Cu med, cong Ci]
+23.5 +21.6 89 +30 +30 очень
душно
1015.3 1015.0
12 17.05 ЮВ 4 16 км 4/3 540 м
[Cu med, cong Ac trans Ci fib]
+26.2 +21.8 77 +34 +35 очень
душно
1016.0 1016.0 +23.2 +31.5
15 17.05 В 7 16 км 5/4 600 м
[Cu med, cong Ac trans]
+29.2 +22.4 67 +38 +41 очень
душно
1016.7 1017.0
00 18.05 В 4 16 км 9/4 600 м
[Cu Sc Ac trans Ci]
+26.4 +22.8 81 +35 +35 очень
душно
1014.9 1015.0 +23.2 +32.2
03 18.05 штиль 0 16 км 8/4 600 м
[Sc Ac trans]
+25.6 +22.6 84 +34 +34 очень
душно
1016.7 1017.0
06 18.05 штиль 0 16 км 6/4 540 м
[Sc Ac trans]
+25.2 +24.6 96 +35 +35 очень
душно
1015.5 1016.0 +23.2 +32.2
09 18.05 штиль 0 16 км 8/4 540 м
[Sc Ac trans]
+24.8 +24.0 95 +34 +34 очень
душно
1014.5 1015.0
12 18.05 ЮВ 5 16 км 8/4 600 м
[Cu med, cong Ci]
+25.8 +22.8 84 +34 +35 очень
душно
1015.9 1016.0 +22.0 +32.2
15 18.05 В 8 16 км 8/5 660 м
[Cu med, cong Ci]
+29.6 +21.6 62 +38 +39 очень
душно
1015.7 1016.0
18 18.05 В 8 16 км 4/3 660 м
[Cu med, cong Ci fib]
+30.2 +22.8 65 +40 +43 очень
душно
1015.4 1015.0 +22.0 +31.0
21 18.05 В 8 16 км 6/3 660 м
[Cu med, cong Ci]
+28.8 +24.1 76 +40 +41 очень
душно
1013.9 1014.0
00 19.05 В 8 16 км 3/3 540 м
[Cu med, cong]
+25.8 +23.3 86 +35 +35 очень
душно
1015.4 1015.0 +22.0 +32.0
06 19.05 штиль 0 16 км 4/3 480 м
[Cu med, cong Ci fib]
+24.8 +22.6 88 +33 +33 очень
душно
1016.4 1016.0 +22.0 +32.0
09 19.05 штиль 0 16 км {ливн. осадки} 1/1 420 м
[Cu med, cong]
+24.0 +22.6 92 +31 +31 очень
душно
1016.1 1016.0 0.1
12 19.05 штиль 0 16 км 3/3 540 м
[Cu med, cong]
+25.5 +22.7 85 +34 +37 очень
душно
1017.8 1018.0 +22.5 +32.0
15 19.05 ЮВ 5 16 км {дождь} 5/5 540 м
[Sc]
+27.5 +23.4 78 +37 +42 очень
душно
1017.9 1018.0 0.0
18 19.05 СВ 12 16 км 4/4 660 м
[Cu med, cong]
+29.5 +22.7 67 +39 +39 очень
душно
1016.6 1017.0 +22.5 +31.0
21 19.05 ЮВ 12 16 км 5/5 600 м
[Cu med, cong]
+27.9 +23.0 75 +37 +37 очень
душно
1015.4 1015.0
00 20.05 ЮВ 5 16 км 6/6 540 м
[Cu Sc]
+25.4 +22.6 85 +33 +33 очень
душно
1016.3 1016.0 +22.5 +31.2
03 20.05 штиль 0 16 км 4/4 540 м
[Cu Sc]
+25.2 +23.4 90 +34 +34 очень
душно
1017.7 1018.0
06 20.05 штиль 0 16 км 5/5 480 м
[Cu Sc]
+24.7 +22.5 88 +32 +32 очень
душно
1016.8 1017.0 +22.5 +31.2
09 20.05 штиль 0 16 км 5/5 480 м
[Cu Sc]
+24.1 +22.5 91 +32 +32 очень
душно
1015.8 1016.0
12 20.05 штиль 0 8000 м слабый дождь 6/6 300 м
[Cu Sc]
+23.3 +22.7 96 +32 +34 очень
душно
1017.0 1017.0 +22.9 +31.2 3
15 20.05 ЮВ 3 16 км {дождь} 5/5 540 м
[Cu Sc]
+26.1 +23.6 86 +35 +43 очень
душно
1018.1 1018.0 7
18 20.05 В 8 16 км в посл. час дождь 8/8 480 м
[Cu Sc]
+25.1 +23.8 93 +34 +35 очень
душно
1016.9 1017.0 +22.9 +27.2 26
21 20.05 В 10 16 км 8/8 540 м
[Cu Sc]
+27.6 +23.3 77 +37 +37 очень
душно
1015.6 1016.0
00 21.05 В 5 16 км 6/6 500 м
[Cu Sc]
+25.6 +23.7 89 +35 +35 очень
душно
1016.0 1016.0 +22.9 +29.2

 

Местоположение метеостанции Puerto Plata (Доминиканская Республика): широта 19.75 долгота -70.55 высота над уровнем моря 5 м.

В архиве по умолчанию представлена погода в Puerto Plata за последнюю неделю. Архивные данные за месяц целиком и за предыдущие месяцы, начиная с января 2011 года, Вы можете получить, выбрав интересующий диапазон дат из раскрывающегося списка и нажав кнопку "Ввод!".


*Определитесь, кто Вы:
робот инопланетянин человек

Внимание! Время в таблицах - всемирное. Для получения местного времени необходимо прибавить поправку, которая в Puerto Plata равна -4 ч.

Смотрите также архив погоды в соседних городах и на ближайших метеорологических станциях:

Погода в Santiago (Доминиканская Республика) (37 км)
Погода в Sabana De La Mar (Доминиканская Республика) (145 км)
Погода в Santo Domingo (Доминиканская Республика) (163 км)
Погода в Las Americas (Доминиканская Республика) (174 км)
Погода в Barahona (Доминиканская Республика) (182 км)
Погода в La Romana Int Airport (Доминиканская Республика) (224 км)
Погода в Punta Cana (Доминиканская Республика) (265 км)
Погода в Punta de Maisi (Куба) (380 км)
Погода в Punta Lucrecia (Куба) (547 км)
Погода в Cabo Lurecia (Куба) (548 км)

Пояснения к столбцам:

Ветер - указаны скорость ветра в м/с - средняя за 10 мин, порывы в срок и между сроками (в фигурных скобках) и направление, откуда дует ветер: С - северный, СВ - северо-восточный, В - восточный, ЮВ - юго-восточный, Ю - южный, ЮЗ - юго-западный, З - западный, СЗ - северо-западный.
Видимость - горизонтальная дальность видимости в метрах или километрах. При видимости от 1 до 10 км при отсутствии осадков обычно наблюдается дымка, при ухудшении видимости до 1 км и менее - туман. В сухую погоду видимость может ухудшаться дымом, пылью или мглою.
Явления - указаны атмосферные явления, наблюдавшиеся в срок или в последний час перед сроком; фигурными скобками обозначены явления, наблюдавшиеся между сроками (за 1-3 часа до срока); квадратными скобками обозначены град или гололедные отложения с указанием их диаметра в мм.
Облачность - указаны через наклонную черту общая и нижняя облачность в баллах и высота нижней границы облаков в метрах; квадратными скобками обозначены формы облаков: Ci - перистые, Cs - перисто-слоистые, Cc - перисто-кучевые, Ac - высококучевые, As - высокослоистые, Sc - слоисто-кучевые, Ns - слоисто-дождевые, Cu - кучевые, Cb - кучево-дождевые. Подробнее классификацию облаков см. в Атласе облаков (PDF).
T - Температура воздуха - температура, измеренная на высоте 2 м над землей.
Td - Температура точки росы - температура, при понижении до которой содержащийся в воздухе водяной пар достигнет насыщения.
f - Относительная влажность воздуха - влажноcть воздуха, измеренная на высоте 2 м над землей.
Te - Эффективная температура - температура, которую ощущает одетый по сезону человек в тени. Характеристика душности погоды. При расчете учитывается влияние влажности воздуха и скорости ветра на теплоощущения человека.
Tes - Эффективная температура на солнце - температура, которую ощущает человек, с поправкой на солнечный нагрев. Характеристика знойности погоды. Зависит от высоты солнца над горизонтом, облачности и скорости ветра. Ночью, в пасмурную погоду, а также при ветре 12 м/с и более поправка равна нулю.
P - Атмосферное давление - приведенное к уровню моря атмосферное давление.
Po - Атмосферное давление - измеренное на уровне метеостанции атмосферное давление.
Tmin - Минимальная температура - минимум температуры воздуха на высоте 2 м над землей.
Tmax - Максимальная температура - максимум температуры воздуха на высоте 2 м над землей.
R - Количество осадков - Количество выпавших осадков за период времени, мм. При наведении курсора мыши на число - период времени, за который выпало указанное количество осадков.
R24 - Количество осадков - Количество выпавших осадков за 24 часа, мм.
S - Снежный покров - Высота снежного покрова, см. При наведении курсора мыши на число - состояние снежного покрова и степень покрытия местности в баллах.